Find CAS500-1

NORAD ID: 47932 Int'l Des: 2021-022 Owner: KARI Country: KR operational
LEOCIRCULARRETROGRADESSO

实时位置

正在加载3D地球...

关于 CAS500-1

正在加载描述...

即将过境

Passes for default location (London). Set your location on the main map for personalized predictions.

高度历史

Loading altitude history...

两行轨道根数

1 47932U 21022A 26120.53808988 .00006746 00000-0 31466-3 0 9998
2 47932 97.3954 16.7424 0007225 93.7636 266.4426 15.20156496283527
Epoch: Apr 30, 2026 • Age: 4 hours

当前状态

高度 536.0 km
速度 7.59 km/s
星下点 -69.03°S, 82.24°W
发射日期 Mar 22, 2021
运行时间 5.1 years
类型 earth observation

技术详情

分类 Payload
质量 500.00 kg
干质量 480.00 kg
总质量 500.00 kg
长度 2.90 m
直径 1.90 m
跨度 6.00 m
形状 Box+4 pan
制造商 KRAI
平台类型 CAS500
阶段状态 In Orbit
所有者/国家 KARI/KR

Most Searched